Location: Bazinghen
(50.8246°N, 1.6616°E)
Time: 08:25:03
(UTC+00:00)

Daily predictions for brighter satellites

Satellite Brightness Start Highest point End
(mag) Time Altitude Azimuth Time Altitude Azimuth Time Altitude Azimuth
Cosmos 2184 Rocket 4.0 19:01:05 10° N 19:07:25 82° E 19:13:38 10° SSE
CZ-4C R/B 4.0 19:02:06 10° NW 19:07:39 30° NNE 19:14:06 10° ENE
ADEOS Rocket 3.5 19:02:00 10° NNE 19:08:22 67° WNW 19:14:06 10° SSW
Meteor 2-10 4.2 19:03:55 10° S 19:09:26 77° E 19:15:09 10° NNE
STARLINK-1246 3.8 19:05:23 10° WNW 19:09:32 73° NNE 19:13:41 10° E
Cosmos 407 Rocket 3.8 19:05:56 10° S 19:10:45 42° ESE 19:15:35 10° NE
STARLINK-1201 3.0 19:07:39 10° WNW 19:10:56 80° SSW 19:14:12 10° ESE
Cosmos 1656 Rocket 4.1 19:05:25 10° NNW 19:11:03 66° WSW 19:16:33 10° SSE
Cosmos 1908 3.6 19:07:35 10° SSE 19:11:15 43° E 19:14:59 10° NNE
Cosmos 1328 3.8 19:07:41 10° N 19:11:43 68° ENE 19:15:41 10° SSE
Cosmos 1340 Rocket 3.7 19:08:13 10° SSE 19:11:44 30° E 19:15:16 10° NNE
FREGAT/IRIS 2.3 19:09:46 10° SSE 19:12:28 66° ENE 19:15:12 10° N
Cosmos 2228 3.1 19:09:30 10° S 19:13:43 56° E 19:18:00 10° NNE
STARLINK-1224 3.7 19:10:24 10° WNW 19:14:33 75° NNE 19:18:42 10° E
STARLINK-1203 3.7 19:12:31 10° WNW 19:16:45 79° NNE 19:20:58 10° ESE
Cosmos 1943 3.3 19:11:52 10° SSW 19:17:32 85° WNW 19:23:18 10° NNE
STARLINK-1225 3.7 19:15:23 10° WNW 19:19:33 78° NNE 19:23:42 10° ESE
MOS 1 4.3 19:14:16 10° SSE 19:19:55 82° ENE 19:25:37 10° NNW
MetOp-A 4.5 19:15:40 10° SE 19:20:48 49° ENE 19:25:58 10° N
Resurs 01 Rocket 2.6 19:18:24 10° SE 19:22:13 29° ENE 19:26:03 10° N
STARLINK-52 4.1 19:20:01 10° SSW 19:22:43 25° SE 19:25:26 10° E
Cosmos 1758 Rocket 4.2 19:18:50 10° NNW 19:23:07 59° W 19:27:21 10° S
CZ-2C R/B 3.5 19:18:50 10° NE 19:23:09 26° E 19:27:28 10° SSE
STARLINK-1230 3.7 19:20:21 10° WNW 19:24:31 80° NNE 19:28:37 10° ESE
Nadezhda 1 Rocket 4.1 19:19:51 10° S 19:26:08 63° E 19:32:23 10° NNE
BREEZE M DEB (TANK) 4.2 19:23:40 10° SSE 19:26:17 19° ESE 19:31:06 10° ENE
Cosmos 1697 Rocket 4.3 19:23:33 10° NNW 19:27:52 21° NE 19:32:09 10° E
STARLINK-1243 3.7 19:25:19 10° WNW 19:29:29 82° NNE 19:33:24 12° ESE
SPOT 3 Rocket 3.7 19:24:44 10° SSE 19:29:51 60° ENE 19:34:59 10° N
SL-24 R/B - RUBIN 2 4.4 19:24:20 10° SSW 19:29:53 58° ESE 19:36:07 10° NE
Cosmos 2154 Rocket 4.0 19:24:02 10° N 19:30:26 79° E 19:36:46 10° SSE
FALCON 9 DEB 4.0 19:27:52 10° SSW 19:31:01 31° SE 19:34:10 10° E
ARGOS 3.2 19:25:55 10° SSE 19:31:19 85° WSW 19:36:44 10° NNW
Cosmos 1953 Rocket 3.7 19:26:55 10° NNW 19:31:25 83° W 19:35:54 10° S
NOSS 3-4 (A) 4.3 19:26:20 10° NW 19:33:11 64° SW 19:40:44 10° SSE
NOSS 3-4 (C) 4.2 19:26:27 10° NW 19:33:18 65° SW 19:40:51 10° SSE
Cosmos 1606 Rocket 3.6 19:28:58 10° S 19:33:25 89° WNW 19:37:56 10° N
STARLINK-1236 3.6 19:30:19 10° WNW 19:34:28 85° NNE 19:38:11 13° ESE
USA 186 2.4 19:33:34 10° S 19:36:46 57° W 19:39:50 10° NNW
STARLINK-67 4.4 19:35:09 10° W 19:37:12 21° SW 19:39:15 10° SSE
Cosmos 1953 4.1 19:36:09 10° SW 19:39:51 37° WNW 19:43:36 10° N
Meteor 1-11 4.4 19:35:45 10° NNW 19:41:33 84° W 19:47:13 10° S
Cosmos 1818 4.0 19:38:17 10° SW 19:43:42 67° NW 19:49:09 10° NE
STARLINK-1269 3.6 19:40:16 10° WNW 19:44:25 89° SSW 19:47:44 16° ESE
Cosmos 1763 Rocket 4.3 19:43:06 10° NNW 19:47:52 35° NE 19:51:29 15° ESE
STARLINK-1200 3.6 19:45:15 10° WNW 19:49:24 85° SSW 19:52:31 17° ESE
STARLINK-1234 4.2 19:50:57 10° W 19:53:46 31° SW 19:55:47 16° SSE
STARLINK-1209 4.3 19:51:26 10° W 19:54:13 30° SW 19:56:15 15° SSE
STARLINK-1192 3.6 19:50:13 10° WNW 19:54:23 82° SSW 19:57:18 19° ESE
STARLINK-1233 3.8 19:51:44 10° WNW 19:54:43 39° SSW 19:56:38 18° SSE
STARLINK-1212 3.8 19:52:14 10° W 19:55:11 39° SSW 19:57:04 18° SSE
STARLINK-1105 3.8 19:52:39 10° WNW 19:55:37 38° SSW 19:57:31 18° SSE
STARLINK-1206 3.8 19:53:08 10° W 19:56:03 38° SSW 19:57:55 19° SSE
Cosmos 1455 4.3 19:56:32 11° ENE 19:56:32 11° ENE 19:57:34 10° ENE
STARLINK-1247 3.8 19:53:36 10° W 19:56:32 38° SSW 19:58:22 19° SSE
SeaSat 1 3.4 19:52:03 10° NNE 19:56:51 53° NW 20:01:38 10° SW
STARLINK-1227 3.9 19:54:00 10° W 19:56:57 38° SSW 19:58:47 19° SSE
Iridium 4 Rocket 4.1 19:53:38 10° NNE 19:57:12 26° ENE 19:59:06 19° ESE
STARLINK-1218 3.9 19:54:30 10° W 19:57:25 37° SSW 19:59:13 19° SSE
STARLINK-1226 3.9 19:54:56 10° W 19:57:52 37° SSW 19:59:40 19° SSE
Cosmos 1980 Rocket 3.9 19:53:50 10° NNW 19:58:01 21° NE 20:02:02 11° E
STARLINK-1254 3.9 19:55:22 10° W 19:58:19 37° SSW 20:00:06 19° SSE
STARLINK-1215 3.9 19:55:51 10° W 19:58:46 36° SSW 20:00:32 19° SSE
STARLINK-1231 3.9 19:56:18 10° W 19:59:13 36° SSW 20:00:58 19° SSE
Cosmos 1174 4.2 19:55:18 10° NNW 19:59:15 62° NE 20:02:39 19° SE
STARLINK-1244 3.6 19:55:18 10° WNW 19:59:27 78° SSW 20:02:10 21° ESE
USA 234 4.2 19:54:58 10° ENE 19:59:48 21° SE 20:04:36 10° S
STARLINK-1232 3.9 19:57:13 10° W 20:00:08 36° SSW 20:01:50 19° SSE
Cosmos 1892 3.8 19:57:05 10° N 20:00:32 29° ENE 20:02:12 21° ESE
STARLINK-1217 3.9 19:57:40 10° W 20:00:35 35° SSW 20:02:16 20° SSE
Abrixas rocket 3.4 19:58:18 10° W 20:00:50 25° SSW 20:02:07 19° SSE
STARLINK-1208 4.0 19:58:05 10° W 20:01:00 35° SSW 20:02:43 20° SSE
STARLINK-1229 4.0 19:58:34 10° W 20:01:27 35° SSW 20:03:07 20° SSE
STARLINK-1271 4.0 19:59:01 10° W 20:01:55 35° SSW 20:03:34 20° SSE
STARLINK-1270 4.0 19:59:29 10° W 20:02:22 34° SSW 20:04:00 20° SSE
STARLINK-1154 4.0 19:59:56 10° W 20:02:49 34° SSW 20:04:26 20° SSE
STARLINK-1197 4.0 20:00:51 10° W 20:03:43 34° SSW 20:05:18 20° SSE
STARLINK-1189 4.0 20:01:17 10° W 20:04:09 33° SSW 20:05:43 20° SSE
STARLINK-1138 3.6 20:00:12 10° WNW 20:04:21 75° SSW 20:06:52 23° ESE
STARLINK-1198 4.0 20:01:46 10° W 20:04:37 33° SSW 20:06:10 20° SSE
Cosmos 1825 4.1 20:02:38 10° NNE 20:04:54 15° ENE 20:05:39 14° ENE
H-2A R/B 3.4 20:00:08 10° SSW 20:04:57 39° W 20:09:41 10° NNW
STARLINK-1188 4.0 20:02:11 10° W 20:05:03 33° SSW 20:06:35 20° SSE
ATLAS 5 CENTAUR R/B 1.5 20:00:51 10° SW 20:05:04 83° SE 20:09:54 10° NE
ATLAS 2AS CENTAUR R/B 3.9 19:58:06 10° NW 20:05:06 42° WSW 20:11:33 10° S
STARLINK-1235 4.4 20:02:55 10° W 20:05:40 27° SW 20:07:18 18° S
STARLINK-1187 4.2 20:03:18 10° W 20:06:07 30° SW 20:07:42 19° SSE
STARLINK-1199 4.1 20:04:09 10° W 20:07:01 32° SSW 20:08:31 21° SSE
STARLINK-1191 4.1 20:04:35 10° W 20:07:27 32° SSW 20:08:56 21° SSE
STARLINK-1210 4.1 20:05:03 10° W 20:07:54 32° SSW 20:09:23 21° SSE
STARLINK-1221 4.1 20:05:30 10° W 20:08:22 32° SSW 20:09:49 21° SSE
COSMOS 2455 3.3 20:02:29 10° NW 20:08:26 62° WSW 20:13:57 12° SSE
STARLINK-1219 4.1 20:05:57 10° W 20:08:49 31° SSW 20:10:15 21° SSE
STARLINK-1222 4.2 20:06:24 10° W 20:09:15 31° SW 20:10:40 21° SSE
STARLINK-1143 3.7 20:05:10 10° WNW 20:09:18 71° SSW 20:11:39 25° SE
STARLINK-1211 4.2 20:06:53 10° W 20:09:43 31° SW 20:11:07 21° SSE
STARLINK-1214 4.2 20:07:19 10° W 20:10:09 31° SSW 20:11:33 21° SSE
STARLINK-1245 4.2 20:07:48 10° W 20:10:36 30° SW 20:11:57 21° S
STARLINK-1238 4.2 20:08:13 10° W 20:11:03 30° SW 20:12:25 21° S
STARLINK-1205 4.2 20:09:10 10° W 20:11:57 30° SW 20:13:16 21° S
STARLINK-1204 4.2 20:09:37 10° W 20:12:25 29° SW 20:13:42 21° S
Cosmos 1140 Rocket 3.5 20:07:35 10° SSW 20:12:47 85° WNW 20:17:59 10° NNE
ERBS 2.2 20:09:27 10° WNW 20:12:51 80° SW 20:14:20 31° SE
STARLINK-1241 3.7 20:10:11 10° WNW 20:14:19 68° SSW 20:16:28 27° SE
STARLINK-29 2.8 20:15:04 10° WSW 20:18:15 66° SSE 20:19:44 28° E
STARLINK-1239 3.7 20:15:09 10° WNW 20:19:16 64° SSW 20:21:14 29° SE
SAR-Lupe-2 4.1 20:16:58 10° NNE 20:20:21 37° E 20:21:15 32° SE
ATLAS CENTAUR R/B 2.5 20:16:57 10° NNW 20:20:27 29° NE 20:22:10 20° ENE
IGS 5A 4.2 20:20:27 27° ESE 20:21:59 37° ENE 20:25:49 10° N
Cosmos 1300 2.6 20:19:19 10° S 20:23:09 88° W 20:27:00 10° N
Resurs 1-3 4.1 20:19:07 10° S 20:23:25 57° WSW 20:27:47 10° NNW
STARLINK-1240 3.8 20:20:08 10° WNW 20:24:15 61° SSW 20:26:01 31° SE
Spot 2 Rocket 3.6 20:22:15 23° SE 20:25:21 61° ENE 20:30:23 10° N
STARLINK-60 3.1 20:22:47 10° WSW 20:26:03 77° NNW 20:27:47 26° ENE
Cosmos 841 Rocket 4.2 20:22:08 10° NNW 20:27:09 41° ENE 20:29:32 26° ESE
Cosmos 1850 Rocket 4.4 20:24:21 17° SSE 20:27:56 40° ESE 20:32:46 10° NE
In-Cosmos 22 Rocket 4.2 20:22:33 10° NNW 20:28:26 82° ENE 20:32:45 19° SSE
STARLINK-1216 3.9 20:25:07 10° WNW 20:29:11 57° SSW 20:30:47 33° SE
Terra 3.2 20:29:52 21° E 20:31:20 24° ENE 20:35:09 10° N
CZ-2C R/B 4.3 20:26:53 10° N 20:31:32 60° WNW 20:36:04 10° SSW
Cosmos 2082 Rocket 4.1 20:34:09 12° ENE 20:34:09 12° ENE 20:35:12 10° ENE
SPOT 5 3.7 20:31:40 25° E 20:32:46 29° ENE 20:36:30 10° N
STPSAT 2 (USA 217) 4.5 20:28:54 10° SSW 20:33:20 68° ESE 20:37:50 10° NNE
STARLINK-1237 3.9 20:30:05 10° WNW 20:34:09 54° SSW 20:35:33 35° SSE
Meteor 2-10 Rocket 4.3 20:33:52 29° ESE 20:35:12 33° E 20:40:00 10° NNE
MetOp-B 4.1 20:32:14 22° SSE 20:35:46 83° ENE 20:41:11 10° NNW
Cosmos 2058 Rocket 4.5 20:33:53 10° SW 20:38:08 41° WNW 20:42:25 10° N
Cosmos 1833 Rocket 3.8 20:39:02 24° E 20:39:02 24° E 20:43:01 10° NE
STARLINK-1202 4.0 20:35:05 10° WNW 20:39:07 51° SSW 20:40:21 37° SSE
Cosmos 468 Rocket 3.9 20:34:36 10° NNW 20:39:49 87° WSW 20:42:31 29° SSE
CARTOSAT-1 4.4 20:39:31 31° E 20:40:29 35° ENE 20:44:26 10° N
Cosmos 192 4.5 20:35:36 10° NNW 20:40:35 72° WSW 20:43:22 26° S
DMSP B5D2-2 4.5 20:40:06 10° N 20:45:17 65° WNW 20:50:28 10° SSW
SL-4 R/B 1.6 20:42:15 10° W 20:45:40 77° N 20:46:33 47° ENE
Cosmos 1408 2.8 20:43:03 10° N 20:46:38 49° ENE 20:46:55 48° E
ERS-1 Rocket 3.3 20:47:01 35° ESE 20:48:43 51° ENE 20:53:36 10° N
STARLINK-1246 4.2 20:45:04 10° WNW 20:49:02 45° SSW 20:49:54 38° S
RESURS DK-1 2.4 20:45:07 10° NNW 20:49:16 68° NE 20:50:15 48° ESE
Cosmos 1766 Rocket 4.1 20:47:53 10° N 20:52:10 42° ENE 20:52:50 39° E
Cosmos 1570 Rocket 4.0 20:47:07 10° NNW 20:52:30 72° ENE 20:54:32 38° SE
BREEZE M DEB (TANK) 2.8 20:46:18 10° WSW 20:52:59 58° S 20:53:25 53° SE
Okean 3 Rocket 3.8 20:49:25 10° N 20:53:45 51° ENE 20:54:33 45° ESE
STARLINK-1224 4.2 20:50:05 10° WNW 20:54:01 42° SSW 20:54:43 38° S
Meteor 2-12 Rocket 4.4 20:47:52 10° N 20:54:01 89° E 20:57:32 27° S
Cosmos 2058 3.2 20:51:30 10° NNW 20:55:34 62° W 20:57:23 31° SSW
STARLINK-1203 4.4 20:52:28 10° WNW 20:56:23 38° SW 20:57:05 36° S
CZ-4C R/B 3.2 20:50:49 10° NW 20:57:33 58° NE 21:01:49 28° ESE
COSMOS 2406 3.3 20:54:52 24° S 20:58:07 53° ESE 21:03:41 10° NE
Resurs 01 Rocket 2.9 20:55:17 14° SSW 20:58:36 37° W 21:02:45 10° NNW
STARLINK-52 2.9 20:55:25 10° WSW 20:58:27 78° W 20:58:27 78° W
STARLINK-1225 4.3 20:55:06 10° WNW 20:58:59 39° SW 20:59:30 37° SSW
MOS 1 Rocket 4.4 20:55:01 10° N 21:00:16 53° WNW 21:05:32 10° SW
Cosmos 2218 Rocket 4.3 20:56:17 10° NNW 21:02:25 64° W 21:07:06 18° S
CZ-2C R/B 3.3 20:58:44 10° N 21:03:46 53° WNW 21:08:48 10° SW
STARLINK-1230 4.4 21:00:05 10° WNW 21:03:55 37° SW 21:04:16 36° SSW
Cosmos 1812 Rocket 3.8 21:02:25 20° SSW 21:05:20 66° WNW 21:09:41 10° N
Cosmos 2151 2.8 21:02:48 10° N 21:07:01 76° E 21:07:34 64° SE
FALCON 9 DEB 3.2 21:04:23 10° WSW 21:07:53 79° NNW 21:07:53 79° NNW
Cosmos 1697 Rocket 2.6 21:07:04 10° NNW 21:12:46 79° ENE 21:14:29 47° SE
Cosmos 2369 3.6 21:07:12 10° NNW 21:12:53 77° ENE 21:14:33 47° SE
Cosmos 1741 Rocket 4.1 21:21:15 14° SSW 21:25:50 78° WNW 21:31:13 10° NNE
Landsat 7 4.3 21:25:10 38° SSW 21:26:39 55° W 21:31:21 10° NNW
Cosmos 1763 Rocket 4.3 21:24:55 10° NW 21:29:48 42° WSW 21:31:31 32° SSW
Cosmos 1656 4.3 21:25:33 10° NW 21:31:01 50° WSW 21:32:50 36° SSW
Cosmos 1455 2.4 21:31:25 70° WNW 21:31:25 70° WNW 21:35:07 10° N
Cosmos 1408 Rocket 3.7 21:27:06 10° N 21:31:22 62° ENE 21:31:22 62° ENE
SPOT 1/Viking Rocket 3.9 21:30:43 39° SSW 21:32:27 59° W 21:37:38 10° NNW
Cosmos 540 Rocket 3.5 21:28:16 10° NNW 21:33:27 75° WSW 21:34:20 60° S
Cosmos 1743 Rocket 4.5 21:29:58 10° N 21:33:44 37° ENE 21:33:44 37° ENE
SL-16 R/B 3.5 21:29:31 10° NNW 21:34:28 29° NE 21:36:11 25° ENE
Cosmos 2360 Rocket 4.3 21:30:47 10° N 21:34:37 18° NNE 21:37:32 13° ENE
Cosmos 2208 Rocket 4.2 21:29:50 10° NNW 21:35:00 65° WSW 21:36:03 52° SSW
Cosmos 1892 4.4 21:32:51 10° NNW 21:36:11 27° W 21:37:13 24° WSW
Cosmos 1825 2.8 21:37:04 10° NNW 21:40:28 54° WNW 21:40:28 54° WNW
Cosmos 2322 Rocket 3.6 21:36:34 10° NNW 21:41:24 28° NE 21:43:04 24° ENE
Cosmos 1980 Rocket 2.1 21:37:20 10° NNW 21:42:59 76° ENE 21:43:48 64° ESE
Nadezhda 3 Rocket 3.9 21:41:26 45° S 21:43:34 88° E 21:49:53 10° N
USA 234 3.1 21:37:10 10° ENE 21:43:41 65° SE 21:50:11 10° SW
Cosmos 2221 4.1 21:46:37 25° NE 21:46:37 25° NE 21:48:56 10° NNE
Cosmos 1814 Rocket 4.2 21:39:57 10° NNW 21:45:16 63° WSW 21:46:08 55° SSW
Cosmos 1535 Rocket 4.4 21:39:40 10° N 21:45:52 72° E 21:46:59 58° SE
Cosmos-2242 3.4 21:45:30 54° WSW 21:46:01 59° WNW 21:50:20 10° N
ASTEX 1 3.4 21:50:00 68° ENE 21:50:00 68° ENE 21:54:52 10° N
ATLAS 5 CENTAUR R/B 3.7 21:46:24 10° W 21:50:18 28° NNW 21:54:44 10° NE
Cosmos 1356 Rocket 4.3 21:49:52 42° WSW 21:50:39 47° WNW 21:54:46 10° N
Meteor 2-3 Rocket 3.6 21:48:52 10° NNW 21:54:39 89° ENE 21:55:21 70° SSE
Cosmos 2084 4.0 21:53:16 10° NW 21:57:21 53° NNE 21:57:21 53° NNE
ATLAS CENTAUR R/B 2.6 21:55:48 10° NW 21:58:21 34° WNW 21:58:21 34° WNW
Mayak 0.1 22:02:34 10° NNE 22:04:58 32° NE 22:04:58 32° NE
Cosmos 1842 Rocket 4.5 22:09:34 41° NNE 22:09:34 41° NNE 22:12:29 10° NNE
Terra 2.2 22:08:45 54° WSW 22:08:46 54° W 22:13:28 10° NNW
Cosmos 841 Rocket 4.5 22:04:11 10° NW 22:08:59 36° WSW 22:09:38 35° WSW
Cosmos 1934 Rocket 3.9 22:04:14 10° NNW 22:10:30 78° W 22:11:27 64° SSW
SPOT 5 3.7 22:10:53 36° W 22:10:53 36° W 22:14:50 10° NNW
Cosmos 2360 4.4 22:05:18 10° NW 22:10:54 57° WSW 22:11:16 56° SW
Cosmos 2278 3.9 22:08:35 10° NW 22:14:08 57° WSW 22:14:24 56° SW
Cosmos 2082 Rocket 2.1 22:15:56 72° ENE 22:15:56 72° ENE 22:21:11 10° NNE
Cosmos 1833 Rocket 2.9 22:20:37 49° WSW 22:22:01 67° WNW 22:27:41 10° NNE
Cosmos 1605 Rocket 3.8 22:22:44 10° N 22:28:56 85° W 22:29:21 78° SSW
Cosmos 2219 Rocket 4.4 22:27:55 10° N 22:31:45 18° NNE 22:34:41 13° ENE
Cosmos 2344 4.3 22:24:57 10° NW 22:34:20 78° SW 22:38:35 47° SSE
ALOS 2 4.0 22:36:50 33° NNE 22:36:50 33° NNE 22:39:47 10° N
NOSS 2-1 (C) 4.5 22:32:01 10° NW 22:36:48 59° NE 22:37:02 59° NE
NOSS 2-1 (D) 4.4 22:36:16 10° NW 22:41:05 63° NE 22:41:11 62° NE
Cosmos 1339 Rocket 4.4 22:42:33 79° SSW 22:42:59 85° W 22:49:27 10° N
CZ-4C R/B 3.2 22:39:23 10° NW 22:46:18 52° WSW 22:47:00 50° SW
Meteor 1-27 4.5 22:47:28 62° W 22:47:50 64° WNW 22:53:40 10° N
Spot 4 4.5 22:53:49 53° NW 22:53:49 53° NW 22:57:34 10° NNW
Cosmos 1697 Rocket 4.5 22:52:03 10° NW 22:56:06 20° W 22:56:13 20° WSW
Cosmos 1607 3.9 23:12:04 76° WNW 23:12:11 76° NW 23:18:28 10° NE
Thor Agena Rocket 4.2 23:12:22 10° N 23:16:56 48° NW 23:16:56 48° NW
SL-16 R/B 2.6 23:13:24 10° NNW 23:18:02 56° WNW 23:18:02 56° WNW
Cosmos 2360 Rocket 2.5 23:14:12 10° NNW 23:19:17 60° NNE 23:19:17 60° NNE
Cosmos 2221 4.4 23:23:27 27° NW 23:23:27 27° NW 23:26:25 10° N
Cosmos 2322 Rocket 2.6 23:20:21 10° NNW 23:24:52 55° NW 23:24:52 55° NW
Cosmos 1980 Rocket 4.0 23:22:17 10° NW 23:25:34 21° W 23:25:34 21° W
USA 234 3.5 23:20:17 10° ENE 23:26:45 65° NNW 23:33:13 10° W
Cosmos 2061 Rocket 4.0 23:24:50 10° N 23:30:49 77° NE 23:30:49 77° NE
Cosmos 1459 Rocket 4.1 23:30:11 10° NNW 23:36:11 70° WNW 23:36:11 70° WNW
ATLAS 5 CENTAUR R/B 4.4 23:32:50 10° NW 23:36:32 21° N 23:40:39 10° NE
MOS 1-B Rocket 4.3 23:34:15 10° NNE 23:40:21 69° E 23:40:21 69° E
Mayak 1.1 23:39:02 10° NNW 23:41:32 18° NW 23:41:32 18° NW
Cosmos 2333 Rocket 3.1 23:36:40 10° NNW 23:42:03 42° NE 23:42:26 41° ENE
Cosmos 2237 Rocket 4.3 23:38:18 10° NNW 23:42:39 22° NE 23:46:25 12° E
Cosmos 2233 Rocket 4.3 23:41:45 10° N 23:47:50 58° ENE 23:47:50 58° ENE
Cosmos 1864 Rocket 4.5 23:42:05 10° N 23:48:08 81° NNE 23:48:08 81° NNE
Cosmos 1680 Rocket 4.5 23:44:33 10° NNW 23:49:10 42° NE 23:49:10 42° NE
SL-16 R/B 4.3 23:48:42 18° E 23:51:27 25° NE 23:56:20 10° N
